Terminal Aerodrome Forecast
Issued by NWS Tuscon, AZ

Home | Current Version | Previous Version | Text Only | Print | Product List | Glossary On
Versions: 1 2 3 4 5 6 7 8 9 10 11 12 13 14 15 16 17 18
000
FTUS45 KTWC 211700
TAFDUG
TAF
KDUG 211731Z 2118/2218 VRB04KT P6SM SCT120 BKN230
     FM211900 31007KT P6SM FEW120 BKN230
     FM220600 01006KT P6SM BKN230=

USA.gov is the U.S. government's official web portal to all federal, state and local government web resources and services.